Regional Weather Roundup
Issued by NWS

Home | Current Version | Previous Version | Graphics & Text | Print | Product List | Glossary On
Versions: 1 2 3 4 5 6 7 8 9 10 11 12 13 14 15 16 17 18 19 20 21 22 23 24 25 26 27 28 29 30 31 32 33 34 35 36 37 38 39 40 41 42 43 44 45 46 47 48 49 50
136
ASUS45 KBOU 180910
RWRCO

WEATHER ROUNDUP FOR COLORADO
NATIONAL WEATHER SERVICE PUEBLO CO
200 AM MST SUN FEB 18 2018

NOTE: "FAIR" INDICATES FEW OR NO CLOUDS BELOW 12000 FEET WITH NO
SIGNIFICANT WEATHER AND/OR OBSTRUCTIONS TO VISIBILITY.

COZ001>005-013-030-031-181000-
...NORTHWEST COLORADO...

CITY           SKY/WX    TMP DP  RH WIND       PRES   REMARKS
CRAIG          PTCLDY    39  16  39 W13       29.78F
HAYDEN         MOCLDY    27  13  55 SE7       29.80F WCI  19
MEEKER         PTCLDY    39  14  36 NW10      29.82F
RABBIT EARS PA NOT AVBL
STEAMBOAT SPGS FAIR      20  13  75 CALM      29.80F
WALDEN         FAIR      30   7  37 S10G17    29.77S WCI  21
$$

COZ006>008-011-181000-
...WEST CENTRAL VALLEYS...

CITY           SKY/WX    TMP DP  RH WIND       PRES   REMARKS
GRAND JUNCTION CLEAR     32  22  66 E7        29.91S WCI  26
MONTROSE       CLEAR     31  16  54 SE8       29.95F WCI  23
EAGLE          CLEAR     22  14  71 E9        29.90F WCI  12
RIFLE          CLEAR     22  17  81 S5        29.91F WCI  16
DELTA          NOT AVBL
NUCLA          FAIR      30  18  59 S6        30.00F WCI  24
$$

COZ017>023-064>068-181000-
...SOUTHWEST COLORADO...

CITY           SKY/WX    TMP DP  RH WIND       PRES   REMARKS
DURANGO        CLEAR     21  18  88 NE5       30.06F WCI  15
CORTEZ         CLEAR     19  13  77 NE3       30.03F
PAGOSA SPRINGS FAIR      20  17  86 CALM      30.09S
TELLURIDE      CLEAR     33   6  31 CALM      30.04F
WOLF CREEK PAS   N/A     16  12  86 S23G35    30.11F WCI  -2
$$

COZ009-010-012-014-032>034-037-058>063-181000-
...CENTRAL COLORADO...

CITY           SKY/WX    TMP DP  RH WIND       PRES   REMARKS
ASPEN          CLEAR     17   9  70 S9        29.89F WCI   6
BUENA VISTA    FAIR      33   5  30 S5        29.91F WCI  29
COPPER MTN     CLEAR     28   3  34 S21G31    29.94F HAZE    WCI  15
BERTHOUD PASS  FAIR      21  10  63 W41G67    29.84R WCI   0
COTTONWOOD PAS CLEAR     36  -6  17 NW8       29.93F
GUNNISON       CLEAR     16  11  80 CALM      30.00
KREMMLING      CLEAR     39  10  30 SW31G40   29.81F
LEADVILLE      CLEAR     22   3  44 NE12      29.89F WCI  10
MONARCH PASS   CLEAR     19   0  42 SW29G37   30.08F WCI   1
SALIDA         FAIR      38  10  30 S16G25    30.00S
SUNLIGHT       CLEAR     19   9  63 SW24G33     N/A  WCI   2
WILKERSON PASS CLEAR     25  -4  28 SW25G36   29.90S WCI   9
$$

COZ069>075-181000-
...SAN LUIS VALLEY/SANGRE DE CRISTO MOUNTAINS...

CITY           SKY/WX    TMP DP  RH WIND       PRES   REMARKS
ALAMOSA        PTCLDY    32  10  40 S16       30.00F WCI  21
DEL NORTE      FAIR      35  11  37 W20G26    30.00F WCI  24
LA VETA PASS   PTCLDY    28   3  34 S39G61    30.01F WCI  11
SAGUACHE       PTCLDY    14  -2  48 CALM      30.02S
$$

COZ035-036-038>040-181000-
...NORTHERN COLORADO FRONT RANGE...

CITY           SKY/WX    TMP DP  RH WIND       PRES   REMARKS
DENVER INTL AP PTCLDY    40  12  32 S20       29.66F
DMNS CITY PARK NOT AVBL
AURORA         PTCLDY    47   8  20 SW14      29.68F
FRONT RANGE AP FAIR      43  12  27 S16       29.68F
ERIE MUNI ARPT FAIR      31  13  48 SE5       29.70F WCI  26
BOULDER MUN AP FAIR      43  10  26 S3        29.65F
CENTENNIAL     CLEAR     46   9  22 SW23      29.66F
BROOMFIELD     CLEAR     43  10  26 CALM      29.67F
LOVELAND       MOCLDY    38  12  34 S5        29.64F
LONGMONT       FAIR      36  14  40 E8        29.67F
$$

COZ041-046-047-076>085-087-088-181000-
...PIKES PEAK/PALMER DIVIDE AND SOUTHERN FOOTHILLS...

CITY           SKY/WX    TMP DP  RH WIND       PRES   REMARKS
COLO. SPRINGS  MOCLDY    34  14  43 NE7       29.78F WCI  28
A. F. ACADEMY  CLEAR     34  10  37 E6        29.76S WCI  28
SCHRIEVER AFB  NOT AVBL
CHEYENNE MTN   NOT AVBL
ELLICOTT         N/A    N/A N/A N/A S16       29.78F
FALCON         FAIR      32   9  38 MISG      29.80F
FORT CARSON    CLEAR     37  14  39 S14       29.75F
LIMON          MOCLDY    38  12  34 S6        29.75F
MONUMENT HILL  CLEAR     43   9  24 SW22G30   29.77F
CANON CITY     CLEAR     46  16  29 SW8       29.77F
WALSENBURG     FAIR      50   5  16 W13G22    29.85F
TRINIDAD       MOCLDY    42  17  36 W16       29.84F
$$

COZ042>045-048>051-090-091-181000-
...NORTHEAST COLORADO...

CITY           SKY/WX    TMP DP  RH WIND       PRES   REMARKS
GREELEY ARPT   PTCLDY    25  16  68 E6        29.65F WCI  18
AKRON          CLEAR     36  16  44 S12       29.67F
BURLINGTON     MOCLDY    37  17  44 S20       29.73F
WRAY           FAIR      36  18  48 SW14      29.69F
YUMA           NOT AVBL
STERLING       FAIR      32  19  59 SW8       29.64F WCI  25
HOLYOKE        FAIR      34  21  60 S7        29.68F WCI  28
FORT MORGAN    FAIR      31  13  48 CALM      29.66F
$$

COZ086-089-092>099-181000-
...SOUTHEAST COLORADO...

CITY           SKY/WX    TMP DP  RH WIND       PRES   REMARKS
PUEBLO         PTCLDY    25  20  81 N3        29.78F
LA JUNTA       CLOUDY    43  18  36 SW6       29.78F
LAMAR          CLOUDY    45  23  42 SW9       29.78F
SPRINGFIELD      N/A     39  26  59 SW13G23   29.85F
$$





USA.gov is the U.S. government's official web portal to all federal, state and local government web resources and services.